Wetbulb
61.53 62.66 64.02 66.50 70.25 71.46 71.13 70.23 70.52 70.34 70.07 70.21 70.20 69.66 71.11 70.76 70.14 70.01 69.90 69.56 69.43 67.75 64.89 62.71 62.12 60.30 61.52 60.39 59.24 58.48 57.63 56.75
60.85 62.62 63.87 67.08 69.10 70.85 71.01 69.96 70.45 70.12 69.55 68.29 68.63 68.85 68.66 68.84 68.78 67.71 67.37 65.93 64.95 63.44 61.11 60.26 60.03 60.74 59.78 58.44 56.27 54.48 53.20 52.99
60.55 62.58 64.82 67.10 69.30 70.94 71.30 70.69 70.70 70.20 69.43 69.44 69.66 68.58 67.35 67.52 66.42 65.80 64.32 62.80 61.73 60.44 59.78 59.45 59.00 59.34 57.25 55.67 52.69 50.91 51.38 51.80
59.40 61.06 63.65 68.19 67.84 70.22 71.06 70.86 70.74 70.03 69.43 69.54 68.92 66.94 66.72 64.55 63.24 61.63 61.06 61.10 60.67 59.78 59.71 58.33 55.80 56.23 54.75 52.68 51.40 50.77 48.06 49.72
59.34 60.35 62.91 67.10 68.03 70.57 71.24 70.85 70.32 69.78 69.41 68.02 66.42 64.21 62.57 61.70 60.53 60.03 59.45 59.97 59.53 59.54 58.07 56.79 55.90 54.58 52.80 51.82 52.77 50.14 49.83 46.77
59.00 59.80 61.35 67.31 68.63 69.11 70.28 69.82 69.53 69.06 68.52 66.93 65.70 63.83 62.66 61.50 60.08 58.47 58.15 58.65 58.31 57.58 57.40 56.20 54.35 54.28 52.49 51.26 50.88 50.41 49.64 48.40
59.65 60.88 61.52 66.61 68.05 68.46 70.47 69.40 68.71 68.28 67.92 66.32 64.66 63.53 61.64 58.94 57.42 56.63 56.80 56.96 56.90 56.30 56.72 55.27 53.85 52.51 52.23 51.18 50.78 50.07 50.18 49.35
59.54 59.67 60.07 63.68 66.78 67.36 69.66 69.22 68.14 68.60 67.62 65.68 64.24 64.10 61.96 58.44 56.51 56.19 56.00 55.36 54.63 54.40 54.82 54.09 53.52 52.84 51.90 51.50 50.60 49.78 49.35 48.97
58.51 59.83 61.11 63.21 66.16 67.42 68.76 67.99 67.64 67.36 67.31 64.90 64.55 64.01 59.78 57.93 57.06 56.92 56.15 55.21 55.07 55.11 54.26 53.39 52.04 51.36 50.45 50.15 49.43 49.27 49.39 49.26
58.03 60.55 62.06 63.64 66.03 67.16 67.08 66.72 65.90 65.19 64.97 63.20 61.29 59.16 57.90 56.66 57.35 57.17 55.90 55.58 55.02 53.70 52.55 51.48 51.06 50.63 50.08 49.29 48.11 47.90 47.97 48.34
57.02 58.72 61.82 63.86 66.34 66.47 65.10 63.36 61.81 61.74 58.59 57.04 56.59 56.00 55.43 56.53 55.55 54.20 54.07 53.41 52.49 52.01 51.79 51.06 50.14 49.26 48.62 48.12 47.31 47.65 47.54 46.68
57.39 60.12 62.84 65.06 64.39 63.32 62.35 61.44 57.79 56.63 55.62 55.51 54.17 54.31 54.35 54.67 53.57 52.80 52.27 51.57 51.82 51.70 51.01 49.79 48.90 47.73 47.50 47.26 46.55 46.82 46.20 45.65
58.92 60.78 62.00 63.82 61.89 61.19 59.17 59.05 56.82 55.90 54.11 53.03 53.29 53.75 53.83 52.14 52.47 52.04 52.50 50.84 51.11 50.26 49.57 48.67 48.09 47.47 47.55 46.71 45.57 46.03 45.08 44.54
59.41 60.86 61.02 62.59 61.95 60.54 59.14 56.69 54.19 53.45 52.82 52.70 51.60 52.23 50.61 51.07 50.81 51.42 51.70 49.80 49.21 48.55 48.27 47.68 47.56 47.78 46.74 45.85 45.52 45.32 44.72 44.35
59.66 60.37 60.69 61.84 61.60 60.10 57.77 57.15 55.18 53.04 52.86 52.17 50.66 50.35 50.01 50.31 50.17 49.71 49.01 48.91 48.00 47.55 48.51 48.24 48.00 47.13 46.45 45.65 44.96 43.30 42.71 42.68
57.99 58.92 59.77 61.21 60.37 58.72 56.50 53.70 52.79 52.22 50.99 50.00 49.11 49.28 49.99 48.93 48.52 47.93 47.68 47.42 47.59 47.98 47.32 47.17 47.04 46.17 44.27 42.29 41.34 40.30 40.26 40.47
57.96 59.17 59.30 59.99 59.19 57.63 55.68 52.69 51.53 51.02 49.58 48.53 49.16 49.10 47.91 47.24 46.57 45.92 45.92 46.17 46.55 46.28 45.92 45.84 45.90 41.19 37.29 36.93 37.06 37.23 39.14 38.90
57.27 58.25 58.81 59.40 58.82 58.21 55.24 52.38 51.58 49.86 48.97 48.89 48.74 47.70 46.35 45.85 45.31 45.10 44.93 44.69 44.98 44.93 44.94 45.00 41.41 38.27 37.22 36.55 35.55 36.32 37.54 37.06
57.11 57.69 58.54 59.24 59.17 57.88 56.78 53.23 51.31 49.68 48.83 48.68 47.72 45.85 44.96 44.46 44.14 44.23 44.13 44.17 44.07 43.94 44.35 43.96 42.07 38.20 36.69 35.93 35.47 35.26 37.27 37.47
MSLP
1001.01 1001.62 1002.20 1002.83 1004.31 1005.42 1007.26 1008.76 1010.59 1011.60 1011.94 1012.18 1012.47 1012.60 1013.01 1013.52 1014.09 1014.53 1015.01 1015.36 1015.68 1015.95 1016.23 1016.65 1016.82 1017.00 1017.51 1017.92 1018.24 1018.35 1018.35 1018.45
1000.20 1000.65 1001.31 1002.23 1003.59 1005.11 1006.53 1007.92 1009.28 1010.68 1011.14 1011.46 1011.98 1012.61 1013.30 1013.72 1014.11 1014.63 1015.07 1015.39 1015.57 1015.83 1016.33 1016.70 1016.89 1017.45 1017.96 1018.35 1018.69 1018.81 1018.86 1018.67
999.99 1000.32 1001.01 1001.77 1002.97 1004.25 1005.64 1006.96 1008.46 1009.54 1010.47 1011.05 1011.71 1012.37 1013.13 1013.66 1014.15 1014.67 1014.93 1015.26 1015.60 1015.89 1016.35 1016.96 1017.29 1017.65 1018.19 1018.70 1019.01 1019.26 1019.20 1019.15
999.39 999.91 1000.69 1001.74 1002.54 1003.61 1004.82 1006.02 1007.48 1008.80 1009.89 1010.87 1011.59 1012.40 1012.95 1013.55 1014.19 1014.66 1014.97 1015.38 1015.74 1016.10 1016.49 1016.99 1017.41 1017.70 1018.37 1018.85 1019.12 1019.46 1019.81 1019.66
998.58 999.08 999.76 1000.79 1002.09 1003.15 1004.22 1005.30 1006.84 1008.19 1009.45 1010.32 1010.70 1011.39 1012.21 1013.13 1013.90 1014.54 1015.12 1015.42 1015.90 1016.29 1016.70 1017.07 1017.48 1017.89 1018.42 1018.86 1019.28 1019.66 1019.87 1020.10
997.91 998.10 998.67 999.90 1001.14 1002.48 1003.67 1004.81 1006.54 1007.84 1008.75 1009.75 1010.33 1011.26 1011.92 1012.71 1013.65 1014.43 1015.20 1015.64 1015.86 1016.35 1016.85 1017.38 1017.82 1018.10 1018.61 1018.99 1019.33 1019.65 1019.90 1020.08
997.10 997.47 998.01 999.08 1000.49 1002.04 1003.20 1004.68 1006.32 1007.45 1008.13 1009.25 1009.96 1010.73 1011.41 1012.29 1013.23 1014.20 1015.04 1015.66 1016.04 1016.37 1016.84 1017.35 1017.71 1018.16 1018.63 1018.96 1019.31 1019.60 1019.82 1019.97
996.22 996.76 997.57 998.48 1000.17 1001.44 1002.90 1004.33 1006.07 1006.94 1007.79 1008.66 1009.50 1010.22 1011.02 1011.81 1012.84 1013.75 1014.65 1015.49 1015.92 1016.34 1016.85 1017.32 1017.88 1018.12 1018.47 1018.80 1019.23 1019.53 1019.78 1019.97
995.77 996.10 996.93 997.90 999.64 1000.95 1002.30 1003.74 1005.49 1006.61 1007.52 1008.20 1008.92 1009.66 1010.43 1011.33 1012.37 1013.25 1014.14 1014.95 1015.64 1016.24 1016.71 1017.11 1017.63 1018.08 1018.53 1018.94 1019.30 1019.52 1019.66 1019.76
995.21 995.65 996.31 997.52 999.26 1000.74 1001.95 1003.55 1005.26 1006.83 1007.41 1008.02 1008.77 1009.39 1010.10 1011.09 1012.09 1012.90 1013.74 1014.57 1015.48 1016.19 1016.66 1017.21 1017.61 1018.08 1018.56 1018.94 1019.28 1019.50 1019.53 1019.64
994.92 995.38 995.88 996.94 998.88 1000.97 1002.36 1003.27 1004.80 1006.99 1007.56 1008.04 1008.82 1009.48 1010.10 1011.00 1011.77 1012.63 1013.52 1014.48 1015.27 1016.11 1016.76 1017.29 1017.80 1018.25 1018.58 1018.92 1019.23 1019.35 1019.43 1019.72
994.71 995.24 995.60 996.89 999.28 1001.16 1002.42 1003.50 1004.42 1006.67 1007.93 1008.46 1008.88 1009.65 1010.10 1011.00 1011.53 1012.84 1013.46 1014.57 1015.26 1016.06 1016.71 1017.29 1017.78 1018.27 1018.61 1018.89 1019.07 1019.26 1019.45 1019.80
994.32 994.91 995.91 997.74 999.60 1001.11 1002.53 1003.60 1004.46 1006.03 1007.20 1008.16 1009.06 1009.54 1009.99 1011.08 1011.59 1013.12 1013.67 1014.71 1015.40 1016.12 1016.74 1017.29 1017.70 1018.14 1018.53 1018.85 1019.22 1019.57 1019.90 1020.05
994.30 995.10 996.00 997.57 999.26 1000.85 1002.22 1003.57 1004.73 1005.91 1006.81 1007.59 1008.60 1009.41 1009.95 1011.00 1012.01 1012.78 1014.17 1014.61 1015.34 1016.09 1016.77 1017.30 1017.71 1018.15 1018.56 1018.92 1019.31 1019.71 1020.04 1020.21
994.29 995.25 996.10 997.26 998.85 1000.33 1002.01 1003.45 1004.58 1005.90 1006.62 1007.26 1008.14 1009.14 1009.86 1011.00 1011.87 1012.82 1014.18 1014.48 1015.14 1015.94 1016.64 1017.22 1017.76 1018.22 1018.65 1019.09 1019.58 1020.14 1020.39 1020.52
994.07 994.80 995.96 997.14 998.50 999.99 1001.48 1003.28 1004.77 1005.88 1007.10 1007.52 1008.05 1008.91 1009.92 1010.97 1011.79 1013.14 1013.78 1014.48 1015.03 1015.79 1016.59 1017.26 1017.83 1018.26 1018.90 1019.62 1020.28 1020.56 1020.62 1020.56
993.50 994.20 995.45 996.75 997.99 999.39 1000.90 1002.67 1004.25 1005.63 1006.93 1007.82 1008.14 1008.97 1010.06 1010.95 1012.10 1013.14 1013.73 1014.51 1015.09 1015.74 1016.56 1017.29 1017.79 1018.84 1019.69 1020.20 1020.62 1020.72 1020.56 1020.62
993.34 993.75 994.74 995.84 997.01 998.47 1000.14 1001.95 1003.68 1005.18 1006.51 1007.49 1008.25 1009.10 1010.01 1011.09 1012.26 1012.94 1013.82 1014.51 1015.18 1015.84 1016.59 1017.19 1018.28 1019.39 1020.05 1020.48 1020.78 1020.79 1020.59 1020.47
992.25 993.21 994.00 995.15 996.49 997.94 999.37 1001.19 1002.90 1004.34 1005.81 1007.04 1008.16 1009.17 1010.13 1011.29 1012.29 1012.95 1013.67 1014.32 1015.13 1015.61 1016.41 1017.25 1018.23 1019.47 1019.99 1020.41 1020.57 1020.53 1020.34 1020.29
Wind_Speed
17 17 12 14 19 22 21 17 17 16 10 9 7 5 5 6 5 5 6 5 7 5 5 4 3 2 5 5 4 4 2 3
14 16 16 12 17 20 21 20 18 13 11 10 8 7 6 6 6 8 6 5 5 4 5 3 3 5 5 5 4 4 4 4
11 7 11 11 16 19 20 20 19 15 10 9 8 9 7 7 6 7 6 6 5 2 6 5 5 5 6 5 3 2 2 4
14 13 9 11 11 15 19 20 19 15 12 10 8 6 6 6 7 5 5 7 5 7 6 6 3 4 5 3 3 5 3 3
13 12 15 18 15 10 17 19 20 16 15 13 14 12 11 8 7 5 5 7 6 7 7 5 4 4 5 3 5 2 3 3
18 16 15 21 18 15 14 16 19 18 18 13 11 10 8 8 7 10 7 6 7 7 7 6 4 5 5 4 3 4 2 2
16 14 10 21 17 14 13 18 18 18 18 17 16 16 12 11 10 9 7 5 5 7 7 6 5 5 5 3 3 2 3 2
15 14 12 14 20 19 16 18 18 18 19 18 18 15 13 14 14 9 10 6 4 6 6 6 4 5 5 3 3 2 2 2
8 14 9 9 20 19 20 19 17 15 18 18 17 13 10 10 12 10 8 7 6 6 6 6 6 5 4 3 1 1 2 3
12 11 9 8 19 18 19 18 13 12 15 12 11 12 13 12 10 10 6 7 8 7 7 6 6 5 4 3 1 2 2 2
9 10 11 9 18 17 16 16 14 9 7 10 10 10 10 11 10 9 9 7 9 8 7 6 6 5 3 3 2 2 4 3
9 7 9 11 19 17 15 15 18 13 11 10 12 9 11 12 10 10 10 7 9 8 7 7 6 5 3 3 2 2 2 3
7 8 10 19 19 17 16 14 16 16 16 14 13 12 14 12 12 10 10 8 8 7 7 6 6 5 4 4 2 5 4 4
6 9 10 17 18 17 17 16 16 16 17 17 13 14 14 14 12 13 9 10 8 8 7 6 6 5 4 5 2 3 4 5
6 8 10 13 15 16 15 14 16 17 17 17 17 15 16 13 13 12 10 9 9 8 7 6 5 5 5 5 6 5 4 5
10 11 11 13 16 16 16 15 13 15 15 16 16 14 13 14 14 11 9 9 9 9 8 6 5 5 6 7 5 4 5 5
15 15 15 16 16 17 18 19 19 16 16 15 14 15 15 14 12 11 10 9 8 8 7 8 6 8 11 10 5 3 4 4
14 15 16 17 18 19 20 20 19 18 16 16 15 16 16 14 13 13 11 10 9 8 8 6 11 10 10 8 4 3 4 2
18 15 16 18 18 19 18 22 21 20 19 18 16 16 15 14 13 13 11 11 10 9 7 7 9 8 10 7 1 5 3 3
Wind_Direction
213 210 231 188 160 160 160 163 173 183 196 179 191 147 121 127 137 136 143 157 169 174 117 123 271 84 61 54 28 347 338 7
242 208 204 189 157 159 161 164 171 177 193 172 167 153 150 143 156 133 168 156 160 143 124 118 64 73 73 58 28 11 336 31
240 267 191 186 160 162 161 166 169 177 175 171 163 156 160 154 142 174 150 139 134 125 104 99 55 114 91 80 51 10 331 28
235 206 204 169 176 163 168 168 169 164 170 162 166 151 156 152 151 151 137 129 142 114 99 102 89 83 108 81 80 44 355 331
237 232 188 174 182 176 172 171 166 164 165 173 174 168 167 159 153 143 141 137 129 121 118 116 108 99 90 85 82 54 24 334
239 231 208 181 175 183 185 161 164 169 164 172 170 169 157 151 156 140 140 139 130 135 124 126 124 102 99 88 66 42 3 16
232 241 233 177 170 176 173 154 166 171 173 168 171 174 167 157 150 149 149 145 148 137 136 136 114 103 99 81 68 12 30 360
214 213 228 180 168 171 162 161 173 179 177 172 175 177 180 160 149 155 154 158 147 145 136 125 145 105 91 79 59 29 304 273
247 213 205 170 166 169 165 171 172 178 176 175 175 176 161 151 155 157 158 154 147 140 130 123 104 97 87 74 54 341 318 20
226 212 179 161 167 165 155 157 155 171 181 167 161 150 152 153 158 145 141 127 123 120 121 125 119 112 97 83 51 332 337 345
228 246 179 156 157 150 149 140 135 154 139 150 145 149 140 146 138 129 119 122 121 126 128 121 119 119 121 79 39 341 21 3
218 226 144 130 132 148 148 148 140 159 162 168 156 152 141 133 126 122 122 123 129 136 134 134 131 127 109 91 47 315 29 350
209 162 139 136 141 150 156 161 159 171 168 167 161 151 139 137 129 136 124 137 127 125 131 136 134 129 119 90 54 31 2 324
208 145 154 152 153 157 157 163 166 169 169 164 151 150 137 140 141 132 144 133 129 135 127 137 137 122 122 95 83 50 18 340
191 162 172 163 158 156 158 166 169 170 168 162 155 152 147 143 140 136 147 136 136 130 138 132 126 142 123 87 60 33 355 354
207 174 179 169 160 161 158 162 165 166 170 163 157 146 141 134 131 141 136 135 139 137 129 130 129 108 86 81 51 357 345 342
205 183 183 175 173 169 164 168 169 167 169 167 149 140 136 133 134 138 132 133 133 126 140 139 137 99 99 87 50 353 317 19
213 192 191 180 179 175 172 167 163 165 166 163 153 144 141 139 144 142 144 142 132 137 131 145 106 112 117 109 83 315 282 226
202 196 195 183 183 175 166 165 169 168 168 160 152 146 141 147 150 143 146 138 146 140 137 101 122 126 125 112 211 261 294 348